Location: Observatoire
(46.1952°N, 5.3391°E)
Time: 00:27:06
(UTC+01:00)

Altair - Pass Details

Date: 17 February 2026
Orbit: 1502 x 1682 km, 47.2° (Epoch: 9 March)

Event Time Altitude Azimuth Distance (km) Brightness Sun altitude
Rises 08:29:46 0° 273° (W) 4,664 9.4 7.4°
Reaches altitude 10° 08:32:46 10° 274° (W) 3,698 9.0 7.9°
Maximum altitude 08:42:10 85° 3° (N) 1,578 7.8 9.3°
Drops below altitude 10° 08:51:57 10° 93° (E) 3,836 10.9 10.8°
Sets 08:55:07 0° 94° (E) 4,845 11.4 11.3°
